User: anonymous   Login
Location: Unspecified
(0.0000°N, 0.0000°E)
Time: 12:17:04
(UTC+00:00)
Language:

RAX-2 - Orbit

View from above orbital plane
View from above orbital plane
View from above satellite
View from above satellite

Ground track
Ground track

The orbit data is extracted from the following two-line orbital elements,

1 37853U 11061D   17324.78089651  .00003720  00000-0  21271-3 0  9994
2 37853 101.7081 270.2779 0174357 347.6232  12.0722 15.01988206330149
Epoch (UTC): 20 November 2017 18:44:29
Eccentricity: 0.0174357
inclination: 101.7081°
perigee height: 440 km
apogee height: 682 km
right ascension of ascending node: 270.2779°
argument of perigee: 347.6232°
revolutions per day: 15.01988206
mean anomaly at epoch: 12.0722°
orbit number at epoch: 33014

The dashed part of the orbit path shows where the satellite is in the earth's shadow,  

DLR